Location: Palomar Mountain Lodge
(33.3110°N, 116.8495°W)
Time: 11:05:14
(UTC-07:00)

Helios 1A - Pass Details

Date: 19 May 2017
Orbit: 587 x 603 km, 98.2° (Epoch: 23 September)

Event Time Altitude Azimuth Distance (km) Brightness Sun altitude
Exits shadow 21:03:04 14° 175° (S) 1,687 4.9 -15.1°
Maximum altitude 21:06:38 71° 258° (WSW) 635 3.2 -15.7°
Drops below altitude 10° 21:10:51 10° 343° (NNW) 1,941 6.4 -16.4°
Sets 21:13:02 0° 345° (NNW) 2,845 7.4 -16.7°
